QPF
0.00 0.00 0.01 0.01 0.02 0.02 0.02 0.03 0.04 0.05 0.05 0.03 0.03 0.02 0.03 0.03 0.02 0.02 0.02 0.03 0.04 0.04 0.04 0.02 0.02 0.01 0.01 0.02 0.02 0.03 0.05 0.06 0.07 0.07 0.06 0.04 0.04 0.04 0.03 0.02 0.02 0.01 0.01
0.00 0.00 0.01 0.01 0.01 0.02 0.02 0.03 0.02 0.03 0.04 0.04 0.03 0.03 0.03 0.03 0.03 0.03 0.03 0.04 0.05 0.05 0.05 0.04 0.03 0.02 0.01 0.01 0.01 0.01 0.03 0.05 0.06 0.07 0.06 0.06 0.05 0.04 0.03 0.02 0.02 0.02 0.02
0.00 0.00 0.00 0.01 0.01 0.01 0.02 0.02 0.02 0.02 0.03 0.04 0.03 0.03 0.03 0.04 0.04 0.03 0.03 0.03 0.04 0.06 0.05 0.05 0.04 0.04 0.03 0.02 0.01 0.01 0.01 0.02 0.03 0.05 0.06 0.06 0.05 0.04 0.03 0.02 0.02 0.03 0.03
0.00 0.00 0.00 0.00 0.01 0.01 0.02 0.01 0.02 0.02 0.02 0.03 0.02 0.02 0.01 0.02 0.02 0.01 0.01 0.02 0.02 0.03 0.05 0.05 0.04 0.04 0.05 0.04 0.03 0.02 0.01 0.01 0.02 0.02 0.03 0.04 0.03 0.03 0.03 0.02 0.02 0.03 0.04
0.00 0.00 0.00 0.00 0.01 0.01 0.01 0.01 0.01 0.01 0.02 0.02 0.02 0.01 0.01 0.01 0.02 0.02 0.02 0.02 0.02 0.02 0.03 0.05 0.03 0.02 0.03 0.03 0.03 0.02 0.02 0.02 0.02 0.02 0.02 0.03 0.02 0.02 0.01 0.02 0.02 0.02 0.02
0.00 0.00 0.00 0.00 0.01 0.01 0.01 0.01 0.01 0.01 0.01 0.01 0.01 0.02 0.02 0.01 0.01 0.02 0.02 0.02 0.01 0.01 0.02 0.03 0.05 0.03 0.01 0.02 0.02 0.02 0.02 0.02 0.02 0.03 0.03 0.03 0.03 0.03 0.02 0.02 0.02 0.02 0.01
0.01 0.00 0.00 0.00 0.01 0.01 0.01 0.01 0.00 0.00 0.00 0.00 0.01 0.01 0.01 0.01 0.01 0.01 0.02 0.02 0.01 0.01 0.01 0.01 0.03 0.05 0.04 0.02 0.01 0.01 0.01 0.01 0.02 0.03 0.03 0.03 0.04 0.03 0.03 0.03 0.03 0.02 0.02
0.01 0.00 0.00 0.00 0.01 0.01 0.01 0.00 0.00 0.00 0.00 0.00 0.00 0.00 0.01 0.01 0.02 0.01 0.01 0.02 0.02 0.01 0.01 0.01 0.02 0.04 0.05 0.04 0.03 0.02 0.02 0.02 0.02 0.02 0.03 0.03 0.03 0.04 0.05 0.04 0.04 0.03 0.02
0.01 0.01 0.01 0.01 0.01 0.01 0.01 0.00 0.00 0.00 0.00 0.00 0.00 0.00 0.00 0.01 0.01 0.01 0.01 0.01 0.02 0.02 0.01 0.01 0.01 0.02 0.03 0.04 0.04 0.04 0.03 0.02 0.02 0.02 0.03 0.02 0.02 0.03 0.04 0.04 0.04 0.04 0.03
0.01 0.01 0.01 0.01 0.01 0.01 0.01 0.00 0.00 0.00 0.00 0.00 0.00 0.00 0.01 0.01 0.01 0.01 0.01 0.00 0.01 0.01 0.01 0.01 0.01 0.01 0.01 0.02 0.03 0.03 0.04 0.03 0.02 0.02 0.03 0.03 0.02 0.01 0.02 0.03 0.03 0.03 0.03
0.01 0.01 0.01 0.01 0.01 0.01 0.01 0.01 0.00 0.00 0.00 0.00 0.00 0.00 0.00 0.01 0.01 0.01 0.01 0.01 0.01 0.00 0.00 0.00 0.00 0.00 0.01 0.01 0.01 0.02 0.02 0.03 0.02 0.03 0.03 0.04 0.03 0.02 0.02 0.03 0.03 0.03 0.03
0.01 0.01 0.01 0.01 0.01 0.01 0.01 0.01 0.00 0.00 0.00 0.00 0.01 0.01 0.01 0.01 0.01 0.01 0.01 0.01 0.01 0.01 0.00 0.00 0.00 0.00 0.00 0.01 0.01 0.01 0.01 0.02 0.02 0.02 0.03 0.04 0.04 0.03 0.03 0.03 0.03 0.03 0.03
0.02 0.01 0.01 0.00 0.01 0.01 0.01 0.01 0.01 0.01 0.00 0.00 0.00 0.01 0.01 0.01 0.01 0.01 0.01 0.01 0.01 0.01 0.00 0.00 0.00 0.00 0.00 0.01 0.01 0.01 0.01 0.01 0.02 0.02 0.03 0.03 0.04 0.05 0.04 0.04 0.04 0.04 0.04
0.03 0.02 0.02 0.01 0.00 0.00 0.00 0.01 0.01 0.01 0.01 0.01 0.01 0.01 0.01 0.01 0.01 0.01 0.01 0.01 0.01 0.01 0.01 0.01 0.00 0.00 0.00 0.00 0.01 0.01 0.02 0.02 0.02 0.03 0.03 0.03 0.03 0.04 0.04 0.03 0.04 0.04 0.03
0.03 0.03 0.03 0.02 0.01 0.01 0.01 0.01 0.01 0.01 0.01 0.01 0.01 0.01 0.02 0.02 0.02 0.02 0.01 0.01 0.01 0.01 0.01 0.01 0.01 0.00 0.00 0.00 0.00 0.01 0.01 0.02 0.03 0.03 0.03 0.03 0.04 0.03 0.03 0.03 0.03 0.04 0.04
0.03 0.03 0.03 0.03 0.02 0.02 0.01 0.01 0.01 0.01 0.01 0.01 0.01 0.01 0.01 0.02 0.02 0.03 0.03 0.02 0.02 0.02 0.01 0.01 0.01 0.00 0.00 0.01 0.01 0.01 0.01 0.02 0.02 0.03 0.03 0.03 0.03 0.03 0.03 0.03 0.03 0.03 0.04
0.04 0.03 0.04 0.04 0.03 0.03 0.02 0.02 0.01 0.01 0.01 0.01 0.01 0.01 0.01 0.01 0.02 0.02 0.03 0.03 0.03 0.02 0.01 0.01 0.01 0.01 0.01 0.01 0.01 0.01 0.01 0.01 0.01 0.02 0.02 0.02 0.02 0.02 0.02 0.02 0.02 0.02 0.02
0.04 0.03 0.03 0.05 0.03 0.02 0.02 0.02 0.02 0.02 0.01 0.01 0.01 0.01 0.01 0.01 0.01 0.02 0.02 0.02 0.02 0.02 0.02 0.02 0.01 0.01 0.01 0.01 0.01 0.01 0.01 0.01 0.01 0.01 0.01 0.01 0.01 0.01 0.01 0.01 0.01 0.01 0.01
0.04 0.04 0.03 0.05 0.05 0.03 0.02 0.03 0.03 0.04 0.03 0.02 0.02 0.02 0.02 0.02 0.02 0.01 0.02 0.02 0.02 0.02 0.02 0.01 0.01 0.01 0.01 0.01 0.01 0.01 0.01 0.01 0.01 0.01 0.01 0.01 0.01 0.01 0.01 0.01 0.01 0.01 0.01
0.04 0.04 0.04 0.05 0.06 0.05 0.04 0.04 0.04 0.05 0.06 0.05 0.03 0.03 0.03 0.02 0.01 0.01 0.01 0.02 0.02 0.02 0.02 0.01 0.01 0.01 0.01 0.01 0.01 0.01 0.01 0.01 0.01 0.01 0.01 0.01 0.01 0.01 0.01 0.01 0.01 0.01 0.01
0.04 0.05 0.04 0.05 0.06 0.06 0.04 0.04 0.04 0.05 0.06 0.07 0.06 0.04 0.03 0.02 0.01 0.01 0.01 0.02 0.02 0.02 0.02 0.01 0.01 0.01 0.01 0.02 0.01 0.01 0.01 0.01 0.01 0.01 0.01 0.01 0.01 0.01 0.01 0.01 0.01 0.01 0.01
0.03 0.03 0.04 0.05 0.05 0.06 0.04 0.03 0.04 0.04 0.04 0.05 0.06 0.05 0.04 0.02 0.02 0.01 0.01 0.01 0.02 0.02 0.02 0.01 0.01 0.01 0.01 0.01 0.01 0.01 0.01 0.01 0.01 0.01 0.01 0.01 0.01 0.01 0.01 0.01 0.01 0.02 0.01
0.02 0.03 0.03 0.04 0.04 0.04 0.04 0.03 0.03 0.03 0.03 0.04 0.04 0.04 0.04 0.03 0.03 0.02 0.02 0.02 0.02 0.02 0.01 0.01 0.01 0.01 0.01 0.01 0.01 0.01 0.01 0.01 0.01 0.01 0.01 0.01 0.01 0.01 0.01 0.01 0.01 0.01 0.01
0.02 0.02 0.03 0.03 0.04 0.03 0.04 0.04 0.03 0.02 0.03 0.03 0.03 0.04 0.04 0.03 0.03 0.03 0.02 0.02 0.02 0.02 0.02 0.02 0.01 0.01 0.01 0.01 0.01 0.01 0.01 0.01 0.01 0.01 0.01 0.01 0.01 0.01 0.01 0.01 0.01 0.01 0.01
0.02 0.03 0.04 0.05 0.05 0.05 0.04 0.05 0.03 0.02 0.02 0.02 0.03 0.03 0.03 0.04 0.02 0.02 0.02 0.02 0.02 0.02 0.03 0.03 0.02 0.02 0.02 0.02 0.02 0.02 0.02 0.01 0.01 0.02 0.02 0.02 0.01 0.01 0.01 0.01 0.01 0.01 0.01
0.03 0.03 0.04 0.06 0.07 0.06 0.06 0.06 0.05 0.03 0.03 0.03 0.03 0.03 0.03 0.04 0.03 0.03 0.03 0.04 0.03 0.03 0.03 0.03 0.03 0.03 0.02 0.03 0.03 0.03 0.02 0.02 0.02 0.02 0.02 0.01 0.01 0.01 0.01 0.01 0.01 0.01 0.01
MSLP
1010.91 1011.14 1011.26 1011.23 1011.01 1010.61 1010.06 1009.42 1008.75 1008.12 1007.59 1007.20 1006.97 1006.88 1006.93 1007.07 1007.27 1007.49 1007.71 1007.94 1008.19 1008.48 1008.85 1009.33 1009.92 1010.65 1011.47 1012.37 1013.29 1014.20 1015.04 1015.80 1016.44 1016.99 1017.44 1017.83 1018.18 1018.51 1018.84 1019.17 1019.49 1019.79 1020.07
1010.75 1011.06 1011.25 1011.26 1011.07 1010.69 1010.14 1009.48 1008.79 1008.14 1007.60 1007.19 1006.93 1006.83 1006.86 1006.99 1007.19 1007.42 1007.66 1007.93 1008.22 1008.56 1008.97 1009.48 1010.08 1010.77 1011.55 1012.38 1013.22 1014.06 1014.85 1015.57 1016.21 1016.79 1017.30 1017.76 1018.18 1018.58 1018.96 1019.31 1019.64 1019.93 1020.18
1010.52 1010.90 1011.16 1011.25 1011.12 1010.78 1010.27 1009.65 1008.99 1008.37 1007.83 1007.43 1007.17 1007.05 1007.06 1007.16 1007.34 1007.55 1007.80 1008.08 1008.40 1008.77 1009.21 1009.72 1010.30 1010.96 1011.66 1012.40 1013.15 1013.89 1014.60 1015.28 1015.92 1016.51 1017.08 1017.60 1018.10 1018.56 1018.98 1019.36 1019.68 1019.96 1020.18
1010.19 1010.63 1010.96 1011.12 1011.07 1010.81 1010.39 1009.85 1009.27 1008.71 1008.23 1007.86 1007.61 1007.49 1007.48 1007.55 1007.69 1007.88 1008.12 1008.40 1008.73 1009.12 1009.56 1010.06 1010.62 1011.21 1011.83 1012.47 1013.11 1013.75 1014.38 1015.00 1015.61 1016.21 1016.81 1017.38 1017.93 1018.43 1018.88 1019.27 1019.59 1019.84 1020.03
1009.76 1010.24 1010.63 1010.86 1010.90 1010.74 1010.43 1010.00 1009.53 1009.08 1008.68 1008.38 1008.17 1008.06 1008.04 1008.09 1008.20 1008.36 1008.58 1008.85 1009.18 1009.57 1010.01 1010.50 1011.02 1011.56 1012.10 1012.64 1013.17 1013.70 1014.23 1014.78 1015.35 1015.94 1016.54 1017.13 1017.71 1018.23 1018.69 1019.08 1019.38 1019.61 1019.77
1009.32 1009.81 1010.23 1010.52 1010.63 1010.57 1010.36 1010.06 1009.72 1009.39 1009.11 1008.89 1008.75 1008.67 1008.65 1008.69 1008.78 1008.91 1009.11 1009.37 1009.70 1010.09 1010.53 1011.00 1011.49 1011.98 1012.45 1012.90 1013.33 1013.76 1014.21 1014.68 1015.19 1015.75 1016.32 1016.91 1017.48 1018.00 1018.45 1018.82 1019.10 1019.31 1019.46
1008.96 1009.44 1009.85 1010.15 1010.30 1010.31 1010.21 1010.02 1009.81 1009.61 1009.45 1009.33 1009.26 1009.23 1009.24 1009.27 1009.35 1009.47 1009.65 1009.90 1010.22 1010.61 1011.05 1011.52 1011.99 1012.44 1012.86 1013.24 1013.60 1013.95 1014.32 1014.72 1015.17 1015.67 1016.21 1016.76 1017.30 1017.80 1018.23 1018.58 1018.84 1019.04 1019.18
1008.82 1009.24 1009.60 1009.87 1010.02 1010.06 1010.01 1009.91 1009.80 1009.72 1009.66 1009.65 1009.66 1009.68 1009.72 1009.77 1009.85 1009.96 1010.13 1010.37 1010.69 1011.08 1011.52 1011.98 1012.44 1012.88 1013.27 1013.61 1013.93 1014.23 1014.54 1014.89 1015.28 1015.73 1016.22 1016.73 1017.23 1017.69 1018.09 1018.42 1018.68 1018.88 1019.04
1009.00 1009.32 1009.59 1009.77 1009.86 1009.87 1009.83 1009.77 1009.73 1009.73 1009.76 1009.83 1009.92 1010.00 1010.08 1010.15 1010.24 1010.35 1010.51 1010.74 1011.04 1011.43 1011.86 1012.33 1012.79 1013.23 1013.62 1013.97 1014.27 1014.55 1014.84 1015.16 1015.52 1015.93 1016.38 1016.84 1017.30 1017.73 1018.10 1018.42 1018.68 1018.90 1019.08
1009.53 1009.72 1009.85 1009.90 1009.88 1009.81 1009.73 1009.66 1009.65 1009.69 1009.79 1009.92 1010.06 1010.20 1010.32 1010.42 1010.51 1010.62 1010.77 1010.98 1011.27 1011.64 1012.07 1012.54 1013.01 1013.46 1013.87 1014.24 1014.57 1014.88 1015.18 1015.51 1015.86 1016.25 1016.67 1017.10 1017.52 1017.92 1018.29 1018.61 1018.88 1019.13 1019.36
1010.39 1010.42 1010.38 1010.26 1010.09 1009.90 1009.73 1009.62 1009.59 1009.64 1009.77 1009.94 1010.13 1010.32 1010.47 1010.59 1010.70 1010.80 1010.94 1011.14 1011.40 1011.75 1012.16 1012.61 1013.09 1013.57 1014.02 1014.43 1014.82 1015.18 1015.53 1015.89 1016.27 1016.66 1017.07 1017.49 1017.90 1018.29 1018.64 1018.97 1019.28 1019.56 1019.83
1011.46 1011.32 1011.09 1010.79 1010.45 1010.12 1009.84 1009.65 1009.57 1009.61 1009.74 1009.94 1010.16 1010.38 1010.57 1010.73 1010.85 1010.96 1011.09 1011.26 1011.50 1011.81 1012.19 1012.63 1013.10 1013.60 1014.09 1014.56 1015.01 1015.45 1015.87 1016.30 1016.72 1017.14 1017.57 1017.98 1018.39 1018.77 1019.13 1019.47 1019.80 1020.12 1020.43
1012.60 1012.27 1011.85 1011.37 1010.86 1010.38 1009.98 1009.70 1009.57 1009.57 1009.70 1009.91 1010.16 1010.42 1010.65 1010.84 1010.99 1011.13 1011.26 1011.42 1011.63 1011.90 1012.25 1012.66 1013.12 1013.62 1014.14 1014.67 1015.19 1015.71 1016.22 1016.71 1017.20 1017.66 1018.11 1018.54 1018.94 1019.32 1019.69 1020.03 1020.38 1020.72 1021.06
1013.65 1013.14 1012.55 1011.89 1011.23 1010.62 1010.10 1009.74 1009.53 1009.50 1009.61 1009.82 1010.10 1010.40 1010.68 1010.93 1011.14 1011.31 1011.47 1011.64 1011.84 1012.09 1012.40 1012.78 1013.22 1013.71 1014.25 1014.82 1015.40 1015.99 1016.57 1017.14 1017.69 1018.20 1018.68 1019.12 1019.52 1019.89 1020.25 1020.59 1020.93 1021.28 1021.63
1014.50 1013.83 1013.07 1012.27 1011.48 1010.75 1010.14 1009.68 1009.41 1009.33 1009.41 1009.62 1009.92 1010.27 1010.62 1010.95 1011.24 1011.49 1011.71 1011.92 1012.14 1012.38 1012.68 1013.03 1013.45 1013.93 1014.46 1015.05 1015.67 1016.31 1016.95 1017.58 1018.18 1018.73 1019.23 1019.68 1020.07 1020.43 1020.76 1021.09 1021.42 1021.75 1022.09
1015.09 1014.28 1013.39 1012.47 1011.57 1010.74 1010.04 1009.50 1009.16 1009.02 1009.07 1009.27 1009.59 1009.98 1010.41 1010.84 1011.24 1011.60 1011.93 1012.22 1012.49 1012.77 1013.07 1013.41 1013.80 1014.26 1014.79 1015.37 1016.01 1016.67 1017.35 1018.02 1018.65 1019.23 1019.74 1020.19 1020.57 1020.91 1021.21 1021.50 1021.80 1022.10 1022.42
1015.46 1014.52 1013.53 1012.52 1011.53 1010.62 1009.83 1009.21 1008.78 1008.57 1008.56 1008.73 1009.05 1009.49 1010.00 1010.54 1011.07 1011.58 1012.04 1012.46 1012.83 1013.18 1013.51 1013.87 1014.25 1014.69 1015.20 1015.77 1016.40 1017.06 1017.76 1018.44 1019.09 1019.68 1020.20 1020.64 1021.00 1021.31 1021.58 1021.84 1022.09 1022.36 1022.64
1015.66 1014.63 1013.56 1012.47 1011.42 1010.43 1009.55 1008.84 1008.31 1008.00 1007.90 1008.02 1008.33 1008.79 1009.37 1010.02 1010.69 1011.36 1011.99 1012.56 1013.07 1013.52 1013.93 1014.32 1014.72 1015.16 1015.64 1016.19 1016.80 1017.46 1018.14 1018.82 1019.47 1020.06 1020.58 1021.01 1021.36 1021.65 1021.89 1022.11 1022.33 1022.55 1022.80
1015.79 1014.70 1013.57 1012.44 1011.33 1010.27 1009.31 1008.48 1007.84 1007.41 1007.20 1007.23 1007.49 1007.95 1008.57 1009.31 1010.12 1010.95 1011.75 1012.49 1013.15 1013.74 1014.25 1014.70 1015.14 1015.58 1016.06 1016.59 1017.17 1017.81 1018.47 1019.14 1019.78 1020.37 1020.89 1021.32 1021.66 1021.93 1022.15 1022.35 1022.53 1022.73 1022.94
1015.91 1014.79 1013.64 1012.48 1011.32 1010.21 1009.16 1008.23 1007.46 1006.89 1006.56 1006.48 1006.66 1007.08 1007.71 1008.52 1009.43 1010.39 1011.35 1012.25 1013.07 1013.79 1014.42 1014.96 1015.45 1015.92 1016.41 1016.93 1017.49 1018.10 1018.75 1019.40 1020.03 1020.62 1021.13 1021.56 1021.90 1022.17 1022.39 1022.57 1022.74 1022.91 1023.09
1016.04 1014.91 1013.76 1012.60 1011.43 1010.27 1009.16 1008.14 1007.25 1006.55 1006.09 1005.89 1005.97 1006.32 1006.93 1007.76 1008.73 1009.79 1010.87 1011.91 1012.86 1013.72 1014.45 1015.09 1015.64 1016.16 1016.66 1017.19 1017.74 1018.34 1018.97 1019.61 1020.23 1020.80 1021.31 1021.74 1022.09 1022.37 1022.59 1022.77 1022.94 1023.11 1023.28
1016.11 1015.00 1013.89 1012.75 1011.59 1010.43 1009.28 1008.20 1007.23 1006.43 1005.85 1005.54 1005.52 1005.80 1006.35 1007.16 1008.15 1009.25 1010.40 1011.54 1012.60 1013.55 1014.39 1015.11 1015.73 1016.30 1016.84 1017.38 1017.94 1018.54 1019.15 1019.77 1020.38 1020.94 1021.45 1021.89 1022.24 1022.53 1022.76 1022.96 1023.13 1023.30 1023.46
1016.03 1014.97 1013.90 1012.82 1011.70 1010.57 1009.44 1008.34 1007.34 1006.49 1005.85 1005.46 1005.35 1005.56 1006.05 1006.81 1007.77 1008.88 1010.05 1011.22 1012.34 1013.36 1014.27 1015.07 1015.76 1016.38 1016.97 1017.54 1018.11 1018.71 1019.31 1019.92 1020.51 1021.06 1021.56 1021.99 1022.35 1022.65 1022.89 1023.10 1023.29 1023.46 1023.63
1015.68 1014.67 1013.67 1012.65 1011.62 1010.56 1009.49 1008.45 1007.49 1006.65 1006.00 1005.59 1005.44 1005.59 1006.02 1006.72 1007.63 1008.70 1009.85 1011.02 1012.15 1013.20 1014.16 1015.01 1015.76 1016.44 1017.07 1017.67 1018.27 1018.87 1019.48 1020.07 1020.64 1021.17 1021.65 1022.06 1022.42 1022.71 1022.97 1023.19 1023.39 1023.58 1023.75
1015.00 1014.02 1013.08 1012.14 1011.20 1010.25 1009.30 1008.38 1007.52 1006.77 1006.19 1005.81 1005.68 1005.81 1006.20 1006.85 1007.70 1008.70 1009.79 1010.92 1012.04 1013.09 1014.07 1014.95 1015.75 1016.48 1017.16 1017.81 1018.43 1019.05 1019.65 1020.22 1020.77 1021.27 1021.72 1022.11 1022.45 1022.74 1022.99 1023.21 1023.43 1023.63 1023.82
1013.95 1012.99 1012.08 1011.21 1010.38 1009.56 1008.76 1008.00 1007.30 1006.70 1006.25 1005.98 1005.91 1006.07 1006.47 1007.08 1007.87 1008.81 1009.84 1010.92 1011.99 1013.03 1014.01 1014.92 1015.75 1016.53 1017.26 1017.94 1018.60 1019.22 1019.82 1020.38 1020.90 1021.37 1021.78 1022.14 1022.45 1022.72 1022.97 1023.19 1023.41 1023.62 1023.82
Thickness
5594 5597 5600 5602 5604 5606 5608 5610 5611 5612 5612 5613 5613 5612 5612 5613 5614 5616 5617 5617 5618 5618 5619 5618 5618 5618 5618 5617 5616 5614 5612 5610 5610 5609 5607 5607 5609 5610 5610 5610 5610 5611 5611
5582 5586 5589 5592 5595 5598 5601 5603 5604 5605 5606 5608 5608 5608 5607 5606 5608 5609 5610 5611 5611 5612 5612 5612 5612 5612 5611 5609 5609 5608 5605 5603 5603 5603 5600 5598 5598 5600 5602 5601 5602 5602 5603
5571 5575 5579 5582 5585 5589 5592 5596 5597 5599 5600 5600 5599 5599 5598 5598 5599 5601 5602 5604 5604 5605 5606 5606 5606 5605 5604 5603 5602 5602 5601 5597 5595 5597 5596 5592 5591 5590 5591 5592 5593 5593 5594
5558 5563 5568 5571 5575 5579 5583 5587 5589 5591 5592 5592 5592 5593 5594 5594 5595 5595 5596 5596 5597 5598 5598 5598 5598 5598 5598 5597 5596 5596 5595 5593 5589 5588 5588 5588 5587 5584 5582 5582 5583 5585 5585
5545 5551 5556 5560 5564 5569 5573 5577 5579 5582 5583 5584 5586 5586 5587 5588 5587 5587 5587 5588 5589 5590 5591 5590 5590 5590 5590 5590 5589 5588 5588 5587 5586 5583 5580 5578 5577 5577 5576 5574 5574 5575 5576
5531 5537 5543 5548 5553 5557 5561 5566 5570 5572 5574 5576 5577 5579 5580 5579 5579 5579 5579 5580 5581 5582 5583 5583 5583 5583 5583 5583 5582 5582 5581 5580 5579 5578 5576 5575 5572 5570 5568 5567 5566 5566 5567
5514 5521 5528 5535 5541 5545 5550 5555 5560 5562 5564 5567 5569 5571 5572 5573 5573 5573 5573 5573 5573 5574 5575 5575 5575 5575 5576 5576 5575 5574 5574 5573 5573 5572 5570 5570 5569 5567 5564 5562 5559 5557 5558
5497 5506 5514 5521 5528 5533 5538 5543 5549 5552 5555 5557 5559 5561 5563 5565 5566 5566 5566 5566 5567 5568 5568 5568 5568 5568 5568 5568 5567 5567 5566 5566 5565 5565 5564 5562 5562 5561 5559 5556 5553 5550 5548
5482 5490 5499 5507 5514 5520 5525 5531 5537 5541 5544 5547 5550 5552 5554 5556 5557 5558 5558 5559 5560 5560 5561 5561 5561 5561 5560 5560 5560 5559 5558 5558 5558 5557 5556 5555 5554 5553 5552 5551 5549 5546 5544
5466 5475 5483 5491 5499 5505 5512 5518 5524 5529 5533 5536 5539 5541 5543 5545 5547 5549 5550 5551 5551 5552 5552 5553 5553 5553 5553 5553 5552 5552 5551 5550 5550 5549 5548 5547 5546 5545 5544 5543 5542 5541 5539
5449 5458 5467 5475 5483 5491 5498 5504 5510 5515 5520 5524 5527 5530 5532 5534 5537 5539 5540 5542 5543 5544 5544 5545 5545 5545 5545 5545 5545 5544 5544 5543 5542 5541 5540 5539 5538 5536 5535 5534 5533 5532 5531
5432 5441 5450 5459 5468 5475 5483 5489 5496 5501 5507 5512 5516 5519 5521 5524 5527 5529 5530 5532 5533 5535 5536 5536 5536 5536 5537 5537 5537 5536 5536 5535 5534 5533 5532 5531 5530 5528 5527 5526 5525 5524 5523
5416 5425 5434 5443 5451 5460 5467 5474 5481 5487 5493 5498 5503 5507 5510 5513 5516 5519 5520 5522 5524 5525 5526 5527 5527 5528 5528 5528 5528 5528 5527 5527 5527 5526 5524 5523 5522 5521 5519 5518 5517 5516 5514
5400 5409 5418 5426 5434 5443 5451 5459 5466 5473 5480 5486 5491 5495 5499 5502 5505 5508 5510 5512 5514 5515 5516 5517 5518 5519 5519 5519 5519 5519 5518 5518 5518 5517 5517 5516 5515 5514 5512 5510 5509 5507 5504
5386 5394 5402 5409 5418 5427 5436 5445 5452 5459 5466 5472 5478 5483 5487 5491 5494 5497 5499 5502 5504 5505 5506 5507 5508 5509 5509 5510 5510 5510 5510 5509 5509 5508 5508 5508 5507 5506 5505 5504 5501 5499 5496
5369 5378 5386 5393 5402 5410 5420 5429 5438 5445 5452 5458 5464 5470 5475 5479 5483 5486 5488 5491 5492 5494 5495 5496 5497 5499 5500 5501 5501 5501 5500 5500 5499 5499 5498 5498 5497 5497 5497 5496 5494 5492 5489
5353 5362 5370 5378 5386 5395 5405 5414 5423 5431 5439 5445 5451 5456 5462 5466 5470 5474 5477 5479 5481 5482 5484 5485 5486 5488 5490 5491 5491 5491 5491 5491 5490 5490 5489 5489 5488 5488 5487 5486 5485 5483 5481
5338 5346 5356 5366 5374 5383 5391 5401 5409 5418 5425 5432 5437 5443 5449 5453 5457 5461 5465 5467 5469 5471 5472 5474 5475 5476 5478 5480 5481 5481 5480 5480 5480 5480 5480 5479 5479 5477 5476 5475 5474 5473 5471
5326 5334 5343 5352 5361 5369 5378 5387 5396 5404 5411 5417 5423 5429 5435 5440 5445 5448 5451 5454 5457 5458 5460 5462 5463 5465 5466 5468 5469 5470 5469 5469 5469 5470 5470 5470 5469 5468 5467 5465 5463 5462 5461
5315 5324 5332 5340 5348 5356 5364 5373 5381 5390 5397 5403 5410 5415 5421 5427 5431 5435 5438 5441 5444 5446 5448 5449 5451 5453 5455 5456 5458 5458 5458 5458 5458 5458 5459 5459 5459 5458 5457 5455 5453 5451 5451
5304 5313 5320 5328 5335 5342 5350 5359 5367 5376 5383 5390 5396 5402 5408 5413 5417 5421 5425 5428 5431 5433 5435 5436 5438 5440 5442 5444 5446 5446 5447 5447 5447 5447 5447 5448 5448 5447 5446 5444 5443 5442 5440
5295 5302 5309 5317 5323 5330 5337 5346 5354 5362 5369 5376 5383 5388 5394 5399 5404 5408 5411 5415 5418 5420 5421 5423 5425 5427 5429 5432 5433 5435 5435 5436 5436 5436 5436 5436 5436 5436 5435 5433 5433 5432 5429
5284 5291 5298 5305 5312 5318 5325 5332 5340 5348 5355 5362 5368 5374 5380 5385 5390 5395 5399 5402 5404 5407 5409 5411 5412 5414 5416 5418 5421 5422 5423 5424 5424 5424 5425 5424 5424 5423 5422 5422 5421 5419 5417
5274 5281 5287 5294 5301 5308 5314 5320 5327 5335 5342 5348 5354 5360 5366 5371 5375 5380 5385 5389 5391 5394 5396 5398 5400 5402 5403 5405 5407 5408 5409 5410 5411 5411 5411 5411 5410 5410 5409 5408 5407 5406 5405
5264 5271 5277 5284 5290 5296 5302 5309 5316 5323 5329 5335 5341 5347 5352 5357 5362 5366 5370 5375 5378 5382 5385 5387 5388 5390 5392 5394 5396 5397 5397 5398 5399 5398 5397 5397 5396 5396 5395 5395 5394 5393 5392
5256 5262 5268 5274 5280 5285 5291 5297 5304 5310 5316 5323 5328 5334 5339 5344 5349 5353 5357 5361 5364 5368 5372 5374 5376 5378 5381 5383 5384 5385 5386 5387 5387 5386 5386 5385 5384 5384 5384 5383 5382 5380 5379